Regional Weather Roundup
Issued by NWS Pendleton, OR

Home | Current Version | Previous Version | Text Only | Print | Product List | Glossary On
Versions: 1 2 3 4 5 6 7 8 9 10 11 12 13 14 15 16 17 18 19 20 21 22 23 24 25 26 27 28 29 30 31 32 33 34 35 36 37 38 39 40 41 42 43 44 45 46 47 48 49 50
000
ASUS46 KPDT 042110
RWRPDT
PENDLETON REGIONAL WEATHER ROUNDUP
NATIONAL WEATHER SERVICE PENDLETON OREGON
200 PM PDT SAT JUL 4 2015

NOTE: FAIR INDICATES FEW OR NO CLOUDS BELOW 12,000 FEET WITH NO
SIGNIFICANT WEATHER AND/OR OBSTRUCTIONS TO VISIBILITY.

# INDICATES UNOFFICIAL STATION AND DATA

WAZ520-042210-
EAST SLOPES OF WASHINGTON CASCADES

CITY            SKY/WX      TMP DP  RH  WIND    PRES   REMARKS
#BULLFROG 2SW   N/A         88  48  25  W6      27.43F
#BUMPING DAM    N/A         88  N/A N/A W2      N/A
#CLE ELUM HS    N/A         88  46  23  W10     29.76F
#CLE ELUM LAKE  N/A         88  50  27  W2      29.64F
#CLIFFDEL 2NW   N/A         90  38  16  W6      N/A    HX 86
#EASTON DOT     N/A         87  41  20  N7      N/A
#GLENWOOD       N/A         91  57  32  S5      29.67F HX 90
#MANASTASH CYN  N/A         91  50  25  N2      29.82F HX 88
#NELSON         N/A         89  52  28  CALM    29.67F
#NELSON 3SW     N/A         88  46  23  CALM    29.85S
#NILE           N/A         95  43  17  W6      28.94F HX 91
#PEOH POINT     N/A         84  45  26  W5      N/A
#RONALD 2NW     N/A         88  52  29  W2      29.75F
#SNOWDEN        N/A         88  38  17  NW2     N/A
#SOUTH BLEWITT  N/A         N/A N/A N/A CALM    N/A
#TEANAWAY 4NE   N/A         94  56  28  SW2     N/A    HX 92
#TROUT LAKE 1NE N/A         92  58  32  S3      29.65F HX 91
$$

WAZ521-042210-
SIMCOE HIGHLANDS

CITY            SKY/WX      TMP DP  RH  WIND    PRES   REMARKS
#BICKLETON HS   N/A         90  36  15  E6      N/A    HX 86
#SATUS PASS DOT N/A         91  53  28  CALM    N/A    HX 89
#CENTERVILLE 1SWN/A         93  53  26  W7      29.59F HX 91
#GOLDENDALE     N/A         93  50  23  W6      N/A    HX 90
#GOLDENDALE 5WNWN/A         93  56  29  SW12    29.63F HX 91
#GOODNOE HILLS  N/A         98  53  22  SW9     N/A    HX 96
#LYLE 6NE       N/A         91  55  30  SW9     29.65F HX 89
$$

WAZ026-042210-
KITTITAS VALLEY

CITY            SKY/WX      TMP DP  RH  WIND    PRES   REMARKS
ELLENSBURG AP   SUNNY       100 44  15  SW9     29.76F HX 96
YTC-OPS AREA    N/A         91  37  15  SE6     29.82F HX 87
#ELLENSBURG CWU N/A         99  48  18  NW6     29.59F HX 96
#ELLENSBURG 3NE N/A         94  49  22  W3      29.76F HX 91
#KITTITAS 3S    N/A         93  57  30  CALM    29.62F HX 92
#THORP 6N       N/A         90  43  20  W15     29.67S HX 86
$$

WAZ027-042210-
YAKIMA VALLEY

CITY            SKY/WX      TMP DP  RH  WIND    PRES   REMARKS
SUNNYSIDE AP    SUNNY       93  59  32  SW3     29.71F HX 92
YAKIMA AIRPORT  SUNNY       101 47  16  S6      29.71F HX 97
#DONALD 2NE     N/A         100 23   6  E1      28.57F HX 94
#GRANDVIEW      N/A         95  45  18  NW2     29.65F HX 91
#MABTON         N/A         95  49  21  W6      29.69F HX 92
#MOXEE 2E       N/A         98  11   4  CALM    29.59F HX 93
#NACHES 2SW     N/A         98  55  24  S2      29.83S HX 96
#TERRACE HTS    N/A         97  52  22  S2      29.59F HX 94
#TOPPENISH      N/A         95  48  20  S2      29.57F HX 91
#WAPATO 4NE     N/A         100 23   6  E1      28.57F HX 94
#WEST VALLEY    N/A         96  48  20  E2      29.60F HX 93
#W YAKIMA       N/A         97  48  19  SW2     29.62F HX 94
#WHITE SWAN 5E  N/A         96  51  22  NE2     29.64F HX 93
#WILEY CITY 3W  N/A         98  32  10  CALM    29.71F HX 93
$$

WAZ028-042210-
LOWER COLUMBIA BASIN...WASHINGTON

CITY            SKY/WX      TMP DP  RH  WIND    PRES   REMARKS
PASCO           SUNNY       99  45  16  S5      29.67F HX 95
RICHLAND AWOS   SUNNY       100 46  16  CALM    29.67F HX 96
#BASIN CITY 5SW N/A         94  64  37  E5      29.69F HX 96
#BENTON CITY    N/A         96  50  21  W2      29.54F HX 93
#CONNELL 5N     N/A         97  53  23  SW6     29.64F HX 95
#CONNELL 5NW    N/A         94  55  27  S1      29.62F HX 92
#ELTOPIA 6NW    N/A         93  53  26  W2      28.69F HX 91
#KAHLOTUS       N/A         95  48  20  N9      29.63F HX 91
#KENNEWICK      N/A         88  48  25  W6      27.43F
#KENNEWICK 3S   N/A         98  54  23  CALM    29.64F HX 96
#PATERSON       N/A         95  50  22  SW5     29.64F HX 92
#PROSSER DOT    N/A         98  39  13  W5      N/A    HX 93
#PROSSER        N/A         98  44  16  NW6     29.63F HX 94
#SAGEMOOR 2W    N/A         96  52  23  SE5     29.50F HX 93
#TOUCHET 2S     N/A         96  59  29  SW6     29.62F HX 95
#WEST PASCO     N/A         100 55  23  W1      29.67F HX 99
$$

WAZ029-042210-
FOOTHILLS OF THE BLUES...WASHINGTON

CITY            SKY/WX      TMP DP  RH  WIND    PRES   REMARKS
WALLA WALLA AP  PTCLDY      98  44  16  SW8     29.73F HX 94
#DAYTON SCHOOL  N/A         95  42  16  W5      29.76F HX 91
#LOWDEN 2SE     N/A         97  58  28  NW7     29.64F HX 97
#PLEASANT VIEW 1N/A         96  43  16  S8      29.66F HX 92
#PRESCOTT       N/A         97  51  21  S3      29.63F HX 94
#SUDBURY        N/A         99  N/A N/A CALM    N/A
#WAITSBURG 5S   N/A         95  45  18  S5      29.72F HX 91
#WAITSBURG 8N   N/A         97  34  11  S13     29.56F HX 92
#WALLA WALLA U  N/A         97  51  21  CALM    29.63F HX 94
#WHITMAN MISSIONN/A         96  56  26  W6      29.66F HX 94
$$

WAZ030-042210-
BLUE MOUNTAINS...WASHINGTON

CITY            SKY/WX      TMP DP  RH  WIND    PRES   REMARKS
#DIXIE 5SE      N/A         87  45  23  W1      29.80F
$$

ORZ009-041-WAZ024-042210-
COLUMBIA RIVER GORGE

CITY            SKY/WX      TMP DP  RH  WIND    PRES   REMARKS
HOOD RIVER AP   SUNNY       91  50  25  W14G24  29.75F HX 88
THE DALLES AP   SUNNY       97  51  21  N18G25  29.69F HX 94
#ARLINGTON AIRPON/A         97  47  18  W7      31.49S HX 93
#ARLINGTON HS   N/A         99  45  16  CALM    29.54F HX 95
#CELILO DOT     N/A         102 65  30  W7      N/A    HX 106
#MARYHILL       N/A         96  47  19  CALM    N/A    HX 92
#MOSIER 1S      N/A         92  41  17  W8      29.73S HX 88
#MURDOCK        N/A         92  59  33  NW21    29.68F HX 91
#RUFUS DOT      N/A         99  63  31  SW7     N/A    HX 101

$$

ORZ510-042210-
NORTH CENTRAL OREGON

CITY            SKY/WX      TMP DP  RH  WIND    PRES   REMARKS
#CHENOWITH 1W   N/A         88  50  27  W21     N/A
#COW CYN RST AREN/A         88  N/A N/A W5      N/A
#DUFUR 9E       N/A         88  52  29  NW15G24 29.71F
#GRASS VALLEY 1SN/A         95  52  24  N7      29.70F HX 92
#KENT DOT       N/A         93  49  22  NW8     N/A    HX 90
#MAUPIN SCHOOL  N/A         99  43  15  SE3     29.73F HX 95
#MORO SCHOOL    N/A         90  55  31  W8      29.80F HX 88
#SHANIKO 5WSW   N/A         87  48  26  W12     N/A
#SHANIKO 4NW    N/A         85  40  20  W8      29.92F
#TYGH VALLEY 2NEN/A         97  52  22  SW7     29.65F HX 94
#WAPANITIA AIRPON/A         96  46  18  W8      29.66F HX 92
#WASCO DOT      N/A         97  59  29  W10     N/A    HX 97
#WASCO 5NE      N/A         95  50  22  NW6     29.66F HX 92
$$

ORZ511-042210-
CENTRAL OREGON

CITY            SKY/WX      TMP DP  RH  WIND    PRES   REMARKS
BEND AIRPORT    N/A         N/A N/A N/A MISG    N/A
MADRAS AIRPORT  CLOUDY      91  37  15  CALM    29.87S HX 87
PRINEVILLE AP   MOCLDY      90  34  14  W9      29.90F HX 86
REDMOND AIRPORT CLOUDY      94  38  14  NW10    29.88F HX 90
#BEND 1SW       N/A         88  43  21  E2      N/A
#BEND-AWBREY    N/A         90  43  20  NE2     29.68F HX 86
#BEND-KIM LN    N/A         88  42  20  CALM    29.90F
#CROOKED RVR RANN/A         89  41  19  SE1     29.67F
#CULVER         N/A         89  37  16  CALM    29.83S
#LAKE BILLY CHINN/A         90  10   5  N8      29.86F HX 86
#POWELL BUTTE 3EN/A         86  45  24  NW5     N/A
#POWELL BUTTE   N/A         90  46  22  CALM    29.56F HX 87
#PRINEVILLE 3N  N/A         89  45  22  W1      29.67F
#WARM SPRINGS   N/A         96  48  20  N1      29.76F HX 93

$$


ORZ509-042210-
EAST SLOPES OF OREGON CASCADES

CITY            SKY/WX      TMP DP  RH  WIND    PRES   REMARKS
#BLUE BOX PASS  N/A         81  22  11  SE3     N/A
#CAMP SHERMAN   N/A         88  44  22  CALM    29.70F
#LA PINE DOT    N/A         91  35  14  SW8     N/A    HX 87
#LA PINE 4NW    N/A         87  45  23  SW3     29.74F
#LAVA BUTTE DOT N/A         89  48  24  SE2     N/A
#SISTERS AIRPOR N/A         87  51  29  N12     30.17S
#SISTERS ODOT   N/A         89  N/A N/A SW2     N/A
#SISTERS 3N     N/A         86  46  25  CALM    29.93S
#SUNRIVER       N/A         89  41  19  W2      29.58F
#SUTTLE LK DOT  N/A         79  49  35  W1      N/A
#TUMALO 3W      N/A         89  43  20  E3      29.58F
#WANOGA BUTTE D N/A         81  36  20  NW3     N/A

$$

ORZ044-042210-
LOWER COLUMBIA BASIN...OREGON

CITY            SKY/WX      TMP DP  RH  WIND    PRES   REMARKS
HERMISTON       PTCLDY      99  44  15  NW9     29.69F HX 95
#BOARDMAN SCHOOLN/A         98  49  19  S1      29.68F HX 95
#BOARDMAN 8SW   N/A         98  51  21  W3      29.64F HX 95
#ECHO 8SW       N/A         98  51  21  W8      29.71F HX 95
#IONE SCHOOL    N/A         96  47  19  W8      29.70F HX 92
#IRRIGON 4NW    N/A         100 50  19  S3      N/A    HX 97
#UMATILLA SCHOOLN/A         101 66  32  W7      29.72F HX 105
#UMATILLA       N/A         99  52  21  W1      29.59F HX 97
$$

ORZ507-042210-
NORTHERN FOOTHILLS OF THE BLUES

CITY            SKY/WX      TMP DP  RH  WIND    PRES   REMARKS
PENDLETON AIRPT PTCLDY      98  45  17  N10G26  29.74F HX 94
#ADAMS 3WNW     N/A         97  46  18  SW7     29.63F HX 93
#ATHENA         N/A         95  48  20  SW2     29.67F HX 91
#CAYUSE         N/A         94  48  21  W8      29.63F HX 91
#HELIX SCHOOL   N/A         94  47  20  NW8     29.65F HX 90
#HELIX 3N       N/A         93  45  19  W7      29.76F HX 89
#HOLDMAN 6E     N/A         93  48  22  E6      29.47F HX 90
#M-F GROVE ELEM N/A         96  47  19  VRB2    29.73F HX 92
#M-FREEWATER 5SEN/A         95  58  29  N2      29.74F HX 94
#PENDLETON DNTN N/A         101 50  18  NW2     29.72S HX 98
#PDT AQUATIC CTRN/A         97  49  20  W10     29.77F HX 94
#PDT SUNRIDGE   N/A         98  47  18  W8      29.73F HX 94
#PENDLETON 7NW  N/A         95  61  33  W7      27.36S HX 96
#PILOT ROCK     N/A         94  47  20  W1      29.79F HX 90
#TUTUILLA       N/A         96  48  20  W7      29.67F HX 93
#UMAPINE 2E     N/A         97  53  23  W2      29.67F HX 95
#WESTON SCHOOL  N/A         92  39  16  N1      29.65F HX 88

$$

ORZ508-042210-
SOUTHERN FOOTHILLS OF THE BLUES

CITY            SKY/WX      TMP DP  RH  WIND    PRES   REMARKS
#AJAX           N/A         93  45  19  W8      29.77F HX 89
#CONDON SCHOOL  N/A         89  45  22  SW7     29.83F
#CONDON 5W      N/A         89  37  16  W9      29.86F
#FOSSIL SCHOOL  N/A         90  41  18  W5      29.80F HX 86
#HEPPNER EOC    N/A         94  45  19  NW5     29.58F HX 90
#LEXINGTON 2SE  N/A         98  49  19  CALM    29.72F HX 95
#RUGGS 5NE      N/A         95  32  11  W10     30.01F HX 90
#RUGGS 2SW      N/A         93  40  16  NW6     29.65F HX 89

$$

ORZ502-503-042210-
BLUE MOUNTAINS

CITY            SKY/WX      TMP DP  RH  WIND    PRES   REMARKS
MEACHAM         MOCLDY      88  38  17  CALM    29.92F
#BATTLE MTN DOT N/A         88  59  38  CALM    N/A
#HEPPNER 15SE   N/A         84  46  27  CALM    29.85F
#LONG CREEK HS  N/A         85  30  14  CALM    29.87F
#N POWDER DOT   N/A         94  57  29  E2      N/A    HX 93
#PIKES PEAK     N/A         84  44  25  SW12    27.99S
#TOLLGATE       N/A         80  43  27  S1      29.93F
#TROY SCHOOL    N/A         104 49  16  NW3     29.45F HX 101
#UKIAH          N/A         95  40  15  SE2     29.71F HX 91
#WESTON 4E      N/A         89  41  19  SW6     29.60F
$$

ORZ505-042210-
JOHN DAY BASIN

CITY            SKY/WX      TMP DP  RH  WIND    PRES   REMARKS
JOHN DAY        MOCLDY      94  31  11  W6      29.91F HAZE HX 89
#JOHN DAY KJDY  N/A         95  87  78  W2      29.85S HX 131
#DAYVILLE SCHOOLN/A         95  34  12  N6      29.81F HX 90
#MITCHELL       N/A         90  51  26  CALM    30.03F HX 87
#MONUMENT HS    N/A         93  37  14  W5      29.81F HX 89
#MT. VERNON 5SE N/A         88  38  17  S2      29.89F
#WINLOCK        N/A         96  41  15  SW3     29.95F HX 92
$$

ORZ506-042210-
OCHOCO AND JOHN DAY HIGHLANDS

CITY            SKY/WX      TMP DP  RH  WIND    PRES   REMARKS
#BUCK CREEK DOT N/A         87  87  100 SW9     N/A
#HORSE RIDGE DO N/A         86  28  12  SW1     N/A
#KEYES SMT DOT  N/A         85  39  20  W8      N/A
#PAULINA SCHOOL N/A         90  39  17  SW1     29.91F HX 86
#PINE MTN OBS   N/A         76  38  25  N3      N/A
#PRAIRIE CITY   N/A         92  38  15  NW2     29.61R HX 88
#SENECA         N/A         86  N/A N/A N2      N/A
#SENECA 9NW     N/A         86  38  18  W1      29.68F
$$

ORZ049-042210-
GRANDE RONDE VALLEY

CITY            SKY/WX      TMP DP  RH  WIND    PRES   REMARKS
LA GRANDE       MOCLDY      91  45  20  N8      29.83F HX 87
#COVE           N/A         90  49  25  NE1     29.86F HX 87
#ELGIN 3N       N/A         91  43  19  S5      29.81F HX 87
#ELGIN 1E       N/A         93  48  22  CALM    N/A    HX 90
#IMBLER SCHOOL  N/A         89  50  26  SE2     29.80F
#ISLAND CITY 4N N/A         88  59  38  CALM    29.80F
#LADD CYN DOT   N/A         93  57  30  NE8     N/A    HX 92
#UNION 1S       N/A         94  45  19  N3      29.56F HX 90
$$

ORZ050-042210-
WALLOWA COUNTY

CITY            SKY/WX      TMP DP  RH  WIND    PRES   REMARKS
#IMNAHA SCHOOL  N/A         99  35  11  S5      29.73F HX 94
#IMNAHA 10S     N/A         76  51  42  SW3     30.01S
#JOSEPH 3N      N/A         87  44  22  NW12    29.94F
#JOSEPH 3W      N/A         84  43  24  E2      29.81F
#LOSTINE        N/A         89  50  26  CALM    29.47F
#MT HOWARD 8000 N/A         72  41  33  NW1     30.26F
#PROMISE 1S     N/A         88  42  20  E6      29.73F
#WALLOWA SCHOOL N/A         92  44  19  CALM    29.81F HX 88



$$



USA.gov is the U.S. government's official web portal to all federal, state and local government web resources and services.